Estación de Loncoche

Ultimos registro cada 15 minutos 28
Estación Fecha / Hora Temperatura Humedad Lluvia Velocidad Dirección Radiación Presion
28 Loncoche 02-09-2026 07:30 7,8 96 0 0 82 19 1015,3
27 Loncoche 02-09-2026 07:15 8,2 96 0 0 82 0 1015,4
26 Loncoche 02-09-2026 07:00 8,4 96 0 0 82 0 1015,3
25 Loncoche 02-09-2026 06:45 8,4 96 0 0 12 0 1015,3
24 Loncoche 02-09-2026 06:30 8,3 96 0 0 12 0 1015
23 Loncoche 02-09-2026 06:15 8,3 95 0 0 12 0 1014,8
22 Loncoche 02-09-2026 06:00 9 96 0 0 51 0 1014,5
21 Loncoche 02-09-2026 05:45 9,1 96 0 0 10 0 1014,3
20 Loncoche 02-09-2026 05:30 9,2 96 0 0 10 0 1014,2
19 Loncoche 02-09-2026 05:15 9,4 95 0 0 10 0 1014,1
18 Loncoche 02-09-2026 05:00 9,8 95 0 0 10 0 1013,9
17 Loncoche 02-09-2026 04:30 10,1 95 0 0 10 0 1013,9
16 Loncoche 02-09-2026 04:15 10,2 94 0,2 0 12 0 1014
15 Loncoche 02-09-2026 04:00 10,3 94 1,4 0 12 0 1014,1
14 Loncoche 02-09-2026 03:45 10,3 94 0 0 22 0 1014,2
13 Loncoche 02-09-2026 03:30 10,4 93 0 0 22 0 1014,1
12 Loncoche 02-09-2026 03:15 10,6 93 0,2 0 44 0 1014,5
11 Loncoche 02-09-2026 03:00 10,7 93 0 0 22 0 1014,6
10 Loncoche 02-09-2026 02:45 10,7 92 0 57,2 111 0 1014,8
9 Loncoche 02-09-2026 02:30 10,8 92 0 0 52 0 1014,9
8 Loncoche 02-09-2026 02:15 10,8 92 0 0 107 0 1015,1
7 Loncoche 02-09-2026 02:00 10,7 92 0 0 142 0 1015,3
6 Loncoche 02-09-2026 01:45 10,6 92 0 0 161 0 1015,1
5 Loncoche 02-09-2026 01:30 10,7 91 0 0 172 0 1015,2
4 Loncoche 02-09-2026 01:15 10,8 91 0 0 179 0 1015,2
3 Loncoche 02-09-2026 00:45 10,4 96 0 57,2 336 0 1015,3
2 Loncoche 02-09-2026 00:30 10,3 96 0 0 346 0 1015,3
1 Loncoche 02-09-2026 00:15 10,4 96 0,2 0 5 0 1015,3